Skip Page Navigation
NASA JPL Caltech
NASA Logo - Jet Propulsion Laboratory + View the NASA Portal
+ Near-Earth Object (NEO) Program
Search JPL
JPL Home Earth Solar System Stars & Galaxies Technology
JPL Solar System Dynamics
BODIES ORBITS EPHEMERIDES TOOLS PHYSICAL DATA DISCOVERY FAQ SITE MAP
JPL Small-Body Database Browser
Search: [ help ]  
79271 Bellagio (1995 SJ5)
Classification: Main-belt Asteroid          SPK-ID: 2079271
Ephemeris | Orbit Diagram | Orbital Elements | Physical Parameters | Discovery Circumstances | Close-Approach Data ]

[ show orbit diagram ]
Orbital Elements at Epoch 2457400.5 (2016-Jan-13.0) TDB
Reference: JPL 15 (heliocentric ecliptic J2000)
 Element Value Uncertainty (1-sigma)   Units 
e .1947294285484888 8.081e-08  
a 2.23085550862053 1.1406e-08 au
q 1.796442290252606 1.8091e-07 au
i 5.070547643767501 8.8448e-06 deg
node 335.4756312565285 7.3433e-05 deg
peri 332.4345605966028 7.8347e-05 deg
M 75.39023573485684 3.0093e-05 deg
tp 2457145.630310043807
(2015-May-03.13031004)
0.00010164 JED
period 1217.042067714441
3.33
9.334e-06
2.556e-08
d
yr
n .2957991424865586 2.2686e-09 deg/d
Q 2.665268726988455 1.3627e-08 au
  Orbit Determination Parameters
   # obs. used (total)      436  
   data-arc span      7949 days (21.76 yr)  
   first obs. used      1994-03-07  
   last obs. used      2015-12-11  
   planetary ephem.      DE431  
   SB-pert. ephem.      SB431-BIG16  
   condition code      0  
   fit RMS      .53647  
   data source      ORB  
   producer      Otto Matic  
   solution date      2016-Jan-04 16:05:04  

Additional Information
 Earth MOID = .781809 au 
 Jupiter MOID = 2.58613 au 
 T_jup = 3.612 
[ show covariance matrix ]

Ephemeris | Orbit Diagram | Orbital Elements | Physical Parameters | Discovery Circumstances | Close-Approach Data ]

Physical Parameter Table
Parameter Symbol Value Units Sigma Reference Notes
absolute magnitude H 16.1 mag n/a MPO348011  

79271 Bellagio           Discovered 1995 Sept. 28 by V. Giuliani and G. Ventre at Sormano.
Bellagio is a world-famous tourist destination situated on the Lake Como a few kilometers north of the Sormano Astronomical Observatory.
NOTE: some special characters may not display properly (any characters within {} are an attempt to place the proper accent above a character)
Reference: 20050523/MPCPages.arcLast Updated: 2005-07-21

[ show close-approach data ]
Alternate Designations
 1995 SJ5 = 2001 KX52 
Ephemeris | Orbit Diagram | Orbital Elements | Physical Parameters | Discovery Circumstances | Close-Approach Data ]
ABOUT SSD CREDITS/AWARDS PRIVACY/COPYRIGHT GLOSSARY LINKS
FirstGov 2016-Feb-07 17:23 UT
(server date/time)  
NASA Home Page
Site Manager:   Ryan S. Park
Webmaster  Alan B. Chamberlin